Weather History for Lufkin, TX

Change the Weather History Date:

Sunday, May 5, 2013

  Actual Average Record
Temperature  
Mean Temperature 57 °F 72 °F  
Max Temperature 70 °F 82 °F 93 °F (1984)
Min Temperature 43 °F 61 °F 43 °F (2013)
Degree Days  
Heating Degree Days 8 0  
Month to date heating degree days 23 1  
Since 1 July heating degree days 1613 1914  
Cooling Degree Days 0 7  
Month to date cooling degree days 11 32  
Year to date cooling degree days 212 208  
Growing Degree Days 6 (Base 50)    
Moisture  
Dew Point 40 °F    
Average Humidity 60    
Maximum Humidity 83    
Minimum Humidity 37    
Precipitation  
Precipitation 0.00 in 0.14 in 3.78 in (1941)
Month to date precipitation 0.04 0.69  
Year to date precipitation 11.62 15.57  
Snow  
Snow 0.00 in - - ()
Month to date snowfall 0.0  
Since 1 July snowfall 0.0  
Snow Depth 0.00 in    
Sea Level Pressure  
Sea Level Pressure 30.05 in    
Wind  
Wind Speed 5 mph (NW)    
Max Wind Speed 17 mph    
Max Gust Speed 22 mph    
Visibility 10 miles    
Events      
T = Trace of Precipitation, MM = Missing Value Source: NWS Daily Summary

Daily Weather History Graph

Daily Weather History Graph

Search for Another Location

Airport:

Trip Planner

Search our weather history database for the weather conditions in past years. The results will help you decide how hot, cold, wet, or windy it might be!

Date:

Astronomy

May. 05, 2013 Rise Set
Actual Time 6:30 AM CDT 8:01 PM CDT
Civil Twilight 6:04 AM CDT 8:27 PM CDT
Nautical Twilight 5:33 AM CDT 8:58 PM CDT
Astronomical Twilight 5:00 AM CDT 9:31 PM CDT
Moon 3:45 AM CDT (5/5) 4:15 PM CDT (5/5)
Length of Visible Light 14h 22m
Length of Day
13h 30m
Waning Crescent, 18% of the Moon is Illuminated
May 5
Waning Crescent
May 9
New
May 17
First Quarter
May 24
Full
May 31
Last Quarter

Hourly Weather History & Observations

Time (CDT) Temp. Windchill Dew Point Humidity Pressure Visibility Wind Dir Wind Speed Gust Speed Precip Events Conditions
12:53 AM 54.0 °F - 35.1 °F 49% 29.97 in 10.0 mi North 4.6 mph - N/A   Clear
1:53 AM 51.1 °F - 36.0 °F 56% 29.98 in 10.0 mi NNW 3.5 mph - N/A   Clear
2:53 AM 46.0 °F - 37.9 °F 73% 29.99 in 10.0 mi Calm Calm - N/A   Clear
3:53 AM 44.1 °F 42.5 °F 39.0 °F 82% 30.00 in 10.0 mi North 3.5 mph - N/A   Clear
4:53 AM 44.1 °F - 37.9 °F 79% 30.01 in 10.0 mi Calm Calm - N/A   Clear
6:53 AM 44.1 °F 41.5 °F 37.9 °F 79% 30.05 in 10.0 mi West 4.6 mph - N/A   Clear
7:53 AM 48.0 °F - 39.9 °F 74% 30.08 in 10.0 mi NW 4.6 mph - N/A   Clear
8:53 AM 53.1 °F - 39.9 °F 61% 30.09 in 10.0 mi NNW 10.4 mph - N/A   Clear
9:53 AM 57.9 °F - 41.0 °F 53% 30.10 in 10.0 mi NW 9.2 mph - N/A   Partly Cloudy
10:53 AM 57.9 °F - 39.0 °F 49% 30.11 in 10.0 mi NNW 12.7 mph 18.4 mph N/A   Mostly Cloudy
11:53 AM 61.0 °F - 39.0 °F 44% 30.11 in 10.0 mi NNW 8.1 mph 17.3 mph N/A   Mostly Cloudy
12:53 PM 62.6 °F - 37.4 °F 39% 30.09 in 10.0 mi NNW 9.2 mph 18.4 mph N/A   Partly Cloudy
1:53 PM 66.9 °F - 39.0 °F 36% 30.07 in 10.0 mi NW 12.7 mph 19.6 mph N/A   Partly Cloudy
2:53 PM 66.0 °F - 39.9 °F 38% 30.06 in 10.0 mi NW 10.4 mph 21.9 mph N/A   Scattered Clouds
3:53 PM 66.9 °F - 39.9 °F 37% 30.04 in 10.0 mi WNW 10.4 mph - N/A   Clear
4:53 PM 68.0 °F - 41.0 °F 37% 30.02 in 10.0 mi NW 9.2 mph 17.3 mph N/A   Clear
5:53 PM 68.0 °F - 41.0 °F 37% 30.02 in 10.0 mi NW 11.5 mph 19.6 mph N/A   Clear
6:53 PM 66.9 °F - 41.0 °F 39% 30.02 in 10.0 mi NNW 5.8 mph - N/A   Clear
7:53 PM 64.0 °F - 42.1 °F 45% 30.04 in 10.0 mi Calm Calm - N/A   Clear
8:53 PM 57.0 °F - 45.0 °F 64% 30.05 in 10.0 mi Calm Calm - N/A   Clear
11:53 PM 51.1 °F - 44.1 °F 77% 30.07 in 10.0 mi Calm Calm - N/A   Clear